Regional Weather Roundup
Issued by NWS

Home | Current Version | Previous Version | Graphics & Text | Print | Product List | Glossary On
Versions: 1 2 3 4 5 6 7 8 9 10 11 12 13 14 15 16 17 18 19 20 21 22 23 24 25 26 27 28 29 30 31 32 33 34 35 36 37 38 39 40 41 42 43 44 45 46 47 48 49 50
000
ASUS45 KCYS 281610
RWRWY

WYOMING REGIONAL WEATHER ROUNDUP
NATIONAL WEATHER SERVICE CHEYENNE WY
900 AM MST FRI NOV 28 2014

NOTE:  "FAIR" INDICATES FEW OR NO CLOUDS BELOW 12,000 FEET
WITH NO SIGNIFICANT WEATHER AND/OR OBSTRUCTIONS TO VISIBILITY.

WYZ001-281700-
YELLOWSTONE NATIONAL PARK

CITY           SKY/WX    TMP DP  RH WIND       PRES   REMARKS
LK YELLOWSTONE   N/A     38  19  46 W8        29.90F WCI  32
W YELLOWSTONE  NOT AVBL

$$
WYZ002>013-054>058-071-098>099-281700-
NORTHERN WYOMING

CITY           SKY/WX    TMP DP  RH WIND       PRES   REMARKS
JACKSON        SUNNY     41  23  48 SW7       29.94S
CODY           MOSUNNY   55  18  22 W21G32    29.73R
GREYBULL       PTSUNNY   32  27  81 NE3       29.78R
WORLAND        PTSUNNY   27  22  81 SW5       29.78S WCI  22
SHERIDAN       CLOUDY    54  24  31 W25G35    29.66S
BUFFALO        PTSUNNY   53  21  28 S9G17     29.71F
GILLETTE       PTSUNNY   49  27  42 SW20G25   29.70F
HULETT           N/A    N/A N/A N/A MISG        N/A
NEWCASTLE      FAIR      41  28  60 CALM      29.77F

$$
WYZ014>020-022>026-101>103-281700-
CENTRAL WYOMING

CITY           SKY/WX    TMP DP  RH WIND       PRES   REMARKS
BIG PINEY      PTSUNNY  N/A N/A N/A E6        30.02F
PINEDALE       CLOUDY    23  21  93 CALM      30.03S
DUBOIS         FAIR      41  18  38 NW13G18   29.90S
LANDER         PTSUNNY   55  11  17 N12       29.85S
RIVERTON       PTSUNNY   45  19  35 W9        29.85F
CASPER         CLOUDY    46  20  35 SW16      29.85F
DOUGLAS        CLOUDY    50  21  32 W13       29.83F

$$
WYZ021-027>030-104>119-281700-
SOUTHERN WYOMING

CITY           SKY/WX    TMP DP  RH WIND       PRES   REMARKS
EVANSTON       PTSUNNY   42  17  36 SW10      30.05F
FORT BRIDGER   FAIR      45  17  32 W12       30.07S
ROCK SPRINGS   SUNNY     40  17  39 CALM      30.05S
DIXON          FAIR      48  16  28 SW14G23   30.12S
RAWLINS        CLOUDY    46  14  27 W17G28    30.01F
SARATOGA       FAIR      45  14  29 S10G18    30.07F
LARAMIE        CLOUDY    44  14  29 SW10      30.03R
CHEYENNE       PTSUNNY   54  12  18 W21       29.92F
TORRINGTON     PTSUNNY   55  20  25 NW7       29.82S
PINE BLUFFS    FAIR      55  14  19 W16       29.91S

$$


USA.gov is the U.S. government's official web portal to all federal, state and local government web resources and services.